Regional Weather Roundup
Issued by NWS

Home | Current Version | Previous Version | Text Only | Print | Product List | Glossary On
Versions: 1 2 3 4 5 6 7 8 9 10 11 12 13 14 15 16 17 18 19 20 21 22 23 24 25 26 27 28 29 30 31 32 33 34 35 36 37 38 39 40 41 42 43 44 45 46 47 48 49 50
000
ASCA42 TJSJ 251810
RWRPR
PUERTO RICO/U.S. VIRGIN ISLANDS HOURLY WEATHER ROUNDUP
NATIONAL WEATHER SERVICE SAN JUAN PR
200 PM AST MON MAY 25 2015

PRZ001-004-251900-
PUERTO RICO

CITY           SKY/WX    TMP DP  RH WIND       PRES   REMARKS
SAN JUAN LMM   MOSUNNY   86  75  70 NE17      30.04F HX  95
PONCE          MOSUNNY   90  72  55 SE12G21   29.99F HX  96
AGUADILLA      MOSUNNY   86  72  62 E20G25    30.05F HX  92
CEIBA          PTSUNNY   86  73  66 NE12      30.06F HX  93
$$

PRZ006-007-251900-
U.S. VIRGIN ISLANDS

CITY           SKY/WX    TMP DP  RH WIND       PRES   REMARKS
CHARLOTTE AMA  CLOUDY    86  72  62 E13       30.03F HX  92
CHRISTIANSTED  MOSUNNY   88  72  58 E15       30.04F HX  94
$$

HOURLY WEATHER ROUNDUP FOR THE NEWS MEDIA

CITY           SKY/WX    TMP DP  RH WIND       PRES   REMARKS
ORLANDO        PTSUNNY   87  72  60 SE13      30.19F HX  93
NEW YORK       MOSUNNY   75  58  55 S9        30.24F
NEWARK         MOSUNNY   88  54  31 S14G23    30.19F
CHICAGO        CLOUDY    71  64  78 SW15G21   29.89R
HARTFORD       CLOUDY    74  56  53 S15       30.24F
BOSTON         CLOUDY    79  49  34 SW10G20   30.20F
DALLAS         LGT RAIN  78  70  76 S15       29.89S
PHILADELPHIA   MOSUNNY   86  54  33 SW17      30.22F
LOS ANGELES    CLOUDY    62  54  74 VRB5      30.01R
WASHINGTON DC  PTSUNNY   82  59  45 S17G26    30.22F


USA.gov is the U.S. government's official web portal to all federal, state and local government web resources and services.